STARLINK-4340, 53494

Orbit data source: Space-Track

STARLINK-4340, 53494 is a payload satellite owned by SpaceX/Seattle (US) in SSO that was launched on Fri, 12 Aug 2022 UTC via an FALCON 9 launch vehicle from the Air Force Western Test Range (AFWTR). Payload-class satellites include a variety of spacecraft equipped with specific instruments for various scientific and technological missions. These include communications satellites like Starlink; space stations such as the ISS; scientific satellites like the Hubble; Earth observation satellites from companies like Planet Labs, Umbra, and HawkEye 360; GPS; miniature CubeSats for education and research; and military/defense satellites.

Loading next visibility...
Identifier
53494, 2022-099AF
Orbit
SSO
Country
Flag of USUS
Related business
Manufacturer
SpaceX/Seattle
Mission
Operational Commercial Communications
Bus & Motor
STARLINK, Unknown motor
Mass
300 kg wet, ~275 kg dry
Launch date (UTC)
2022-08-12 (4 years ago)
Launch vehicle
FALCON 9
Launch site
Air Force Western Test Range (AFWTR)
Object type
Payload
Rocket body
Debris
Shape & HBR
Box + 1 Pan, 10.1 m
Radar Cross Section
13.562 m², Large (>1 m²)

Expand to show TLE details & history
Last TLE update: 15 hours ago

TLE from 15 hours ago
0 STARLINK-4340
1 53494U 22099AF  26145.32363268  .00004769  00000-0  33452-3 0  9994
2 53494  97.4450 266.4191 0002984 119.3242 240.8283 15.05629491207581
Epoch: 2026-05-25T07:46Z
TLE epoch observation values (Epoch: 2026-05-25T07:46:01.863Z)
Latitude
-0.00009°
Longitude
-93.00172°
Altitude
553.652 km
Speed
7.584 km/s
True Right ascension
17h 45m 40s
True Declination
0° 00' 00"
Sunlit
Object was in full shadow at epoch
Visualization orbit readout
Latitude
Unknown
Longitude
Unknown
Altitude
Unknown
Speed
Unknown
Apparent Right ascension
Unknown
Apparent Declination
Unknown
Sunlit
N/A
Visualization observer readout
Local Sidereal Time
08:01:41
Azimuth
Unknown
Elevation
Unknown
Doppler factor
Unknown
Orbital elements
Apogee altitude
548.627 km
Perigee altitude
544.494 km
Semi-major axis
6,924.698 km
Eccentricity
0.0003
Inclination
97.445°
RAAN
266.4191°
Arg. of periapsis
119.3242°
True anomaly
240.79845°
Mean anomaly
240.8283°
Eccentric anomaly
240.81337°
Mean motion
3.76653 °/min
Orbital period
95.58 mins
BSTAR
0.00033452
Loading maneuver chart data...
Computing Atmospheric mass density...
Loading historical data...
Loading historical data...
Loading historical data...
Loading historical data...
Loading historical data...
Loading historical data...
Loading historical data...

Documentation

Showing up to 5 results
|